period_start,C,m1,H,J0,J1,J2,J3,J4,J5,JA,JB,JC,JD,JJ,JK,JN,#
2014-01-27 00:00:15,0.28,5.45,0.00,19.82,25.98,29.28,6.19,30.63,1023.94,2041.99,1924.14,2106.04,2276.02,349.74,329.59,31.82,0000 0000 0000 0000 000000
2014-01-27 00:01:15,0.15,5.45,0.00,19.83,25.97,29.31,6.09,30.71,1023.94,2041.99,1924.03,2106.01,2275.78,349.37,328.94,31.83,0000 0000 0000 0000 000000
2014-01-27 00:02:15,0.10,5.45,0.00,19.83,25.97,29.30,6.27,31.00,1023.94,2041.99,1923.77,2105.79,2275.39,350.16,330.08,31.83,0000 0000 0000 0000 000000
2014-01-27 00:03:15,0.26,5.45,0.00,19.83,25.97,29.31,5.97,30.88,1023.94,2041.99,1923.35,2105.38,2275.14,349.84,329.40,31.84,0000 0000 0000 0000 000000
2014-01-27 00:04:16,0.39,5.46,0.00,19.83,25.97,29.31,6.19,30.71,1023.94,2041.99,1923.14,2105.16,2275.05,350.27,330.08,31.85,0000 0000 0000 0000 000000
2014-01-27 00:05:16,0.18,5.46,0.00,19.84,25.97,29.31,6.16,30.71,1023.94,2041.99,1923.04,2105.06,2275.01,350.50,330.29,31.85,0000 0000 0000 0000 000000
2014-01-27 00:06:16,0.09,5.46,0.00,19.82,25.97,29.31,6.13,30.92,1023.94,2041.99,1922.86,2105.02,2274.80,350.15,330.11,31.86,0000 0000 0000 0000 000000
2014-01-27 00:07:16,0.11,5.46,0.00,19.82,25.97,29.31,6.13,30.71,1023.94,2041.99,1922.40,2104.80,2274.35,349.70,329.56,31.86,0000 0000 0000 0000 000000
2014-01-27 00:08:17,0.35,5.46,0.00,19.82,25.97,29.30,6.14,30.63,1023.94,2041.99,1922.15,2104.36,2274.13,349.50,329.37,31.87,0000 0000 0000 0000 000000
2014-01-27 00:09:17,0.34,5.46,0.00,19.82,25.97,29.29,6.07,30.96,1023.94,2041.99,1922.04,2104.13,2274.04,349.63,329.49,31.88,0000 0000 0000 0000 000000
2014-01-27 00:10:17,0.16,5.46,0.00,19.83,25.97,29.29,6.07,31.00,1023.94,2041.99,1921.77,2104.05,2273.92,349.68,329.53,31.88,0000 0000 0000 0000 000000
2014-01-27 00:11:17,0.15,5.46,0.00,19.82,25.97,29.32,6.19,30.88,1023.94,2041.99,1921.34,2103.99,2273.50,350.03,329.86,31.89,0000 0000 0000 0000 000000
2014-01-27 00:12:18,0.27,5.47,0.00,19.82,25.97,29.32,6.27,30.79,1023.94,2041.99,1921.12,2103.84,2273.19,350.52,330.33,31.89,0000 0000 0000 0000 000000
2014-01-27 00:13:18,0.22,5.47,0.00,19.82,25.97,29.32,6.02,30.79,1023.94,2041.99,1921.02,2103.39,2273.07,349.58,329.45,31.90,0000 0000 0000 0000 000000
2014-01-27 00:14:18,0.23,5.47,0.00,19.82,25.97,29.32,6.21,30.88,1023.94,2041.99,1920.84,2103.17,2273.01,349.88,329.55,31.91,0000 0000 0000 0000 000000
2014-01-27 00:15:18,0.19,5.47,0.00,19.82,25.97,29.31,6.18,30.79,1023.94,2041.99,1920.37,2103.06,2272.81,350.32,330.15,31.91,0000 0000 0000 0000 000000
2014-01-27 00:16:19,0.24,5.47,0.00,19.82,25.97,29.29,6.10,30.71,1023.94,2041.99,1920.14,2103.00,2272.36,349.80,329.21,31.92,0000 0000 0000 0000 000000
2014-01-27 00:17:19,0.20,5.47,0.00,19.81,25.96,29.29,6.17,30.88,1023.94,2041.99,1920.05,2102.78,2272.14,349.95,329.95,31.92,0000 0000 0000 0000 000000
2014-01-27 00:18:19,0.17,5.47,0.00,19.82,25.96,29.29,6.29,30.92,1023.94,2041.98,1919.98,2102.36,2272.05,350.15,330.64,31.93,0000 0000 0000 0000 000000
2014-01-27 00:19:19,0.23,5.47,0.00,19.82,25.95,29.31,6.17,30.63,1023.94,2041.99,1919.60,2102.14,2271.97,350.40,329.52,31.93,0000 0000 0000 0000 000000
2014-01-27 00:20:20,0.24,5.48,0.00,19.82,25.95,29.31,6.25,30.58,1023.94,2041.99,1919.23,2102.05,2271.62,350.35,330.17,31.94,0000 0000 0000 0000 000000
2014-01-27 00:21:20,0.24,5.48,0.00,19.82,25.95,29.30,6.32,30.67,1023.94,2041.99,1919.08,2102.01,2271.26,350.09,329.86,31.95,0000 0000 0000 0000 000000
2014-01-27 00:22:20,0.15,5.48,0.00,19.82,25.95,29.30,6.11,30.50,1023.94,2041.99,1919.00,2101.82,2271.09,349.58,329.84,31.95,0000 0000 0000 0000 000000
2014-01-27 00:23:20,0.17,5.48,0.00,19.80,25.95,29.29,6.34,30.92,1023.94,2041.99,1918.70,2101.39,2271.01,350.24,330.13,31.96,0000 0000 0000 0000 000000
2014-01-27 00:24:21,0.30,5.48,0.00,19.80,25.95,29.29,5.99,30.58,1023.94,2041.99,1918.28,2101.14,2270.66,348.76,328.69,31.96,0000 0000 0000 0000 000000
2014-01-27 00:25:21,0.30,5.48,0.00,19.79,25.95,29.30,6.28,30.79,1023.94,2041.99,1918.10,2101.05,2270.26,350.59,330.04,31.97,0000 0000 0000 0000 000000
2014-01-27 00:26:21,0.19,5.48,0.00,19.78,25.95,29.29,6.13,31.00,1023.94,2041.99,1917.99,2100.96,2270.09,350.41,330.27,31.98,0000 0000 0000 0000 000000
2014-01-27 00:27:22,0.15,5.49,0.00,19.79,25.95,29.28,6.18,30.96,1023.94,2041.99,1917.61,2100.59,2270.02,350.37,330.22,31.98,0000 0000 0000 0000 000000
2014-01-27 00:28:22,0.28,5.49,0.00,19.78,25.95,29.29,6.27,30.75,1023.94,2041.99,1917.24,2100.25,2269.78,350.58,330.51,31.99,0000 0000 0000 0000 000000
2014-01-27 00:29:22,0.32,5.49,0.00,19.77,25.95,29.26,6.30,30.79,1023.94,2041.99,1917.08,2100.09,2269.36,350.90,331.03,31.99,0000 0000 0000 0000 000000
2014-01-27 00:30:23,0.21,5.49,0.00,19.77,25.95,29.27,6.12,30.63,1023.94,2041.99,1917.02,2100.03,2269.16,349.61,329.54,32.00,0000 0000 0000 0000 000000
2014-01-27 00:31:23,0.10,5.49,0.00,19.77,25.94,29.28,6.23,30.75,1023.93,2041.99,1916.81,2099.98,2269.06,351.28,331.10,32.00,0000 0000 0000 0000 000000
2014-01-27 00:32:23,0.11,5.49,0.00,19.79,25.94,29.27,6.11,30.58,1023.94,2041.99,1916.39,2099.83,2269.01,349.57,329.47,32.01,0000 0000 0000 0000 000000
2014-01-27 00:33:23,0.23,5.49,0.00,19.78,25.94,29.26,6.17,30.88,1023.94,2041.99,1916.17,2099.42,2268.79,349.36,329.29,32.02,0000 0000 0000 0000 000000
2014-01-27 00:34:23,0.30,5.49,0.00,19.76,25.94,29.25,6.08,30.75,1023.94,2041.99,1916.04,2099.17,2268.35,349.42,329.36,32.02,0000 0000 0000 0000 000000
2014-01-27 00:35:24,0.24,5.50,0.00,19.76,25.94,29.26,6.30,30.71,1023.94,2041.99,1915.87,2099.06,2268.13,351.14,330.81,32.03,0000 0000 0000 0000 000000
2014-01-27 00:36:24,0.18,5.50,0.00,19.77,25.93,29.23,6.07,30.92,1023.93,2041.99,1915.39,2099.01,2268.04,348.82,328.73,32.03,0000 0000 0000 0000 000000
2014-01-27 00:37:24,0.19,5.50,0.00,19.77,25.92,29.25,6.30,30.88,1023.94,2041.99,1915.14,2098.93,2267.99,350.60,330.86,32.04,0000 0000 0000 0000 000000
2014-01-27 00:38:25,0.16,5.50,0.00,19.75,25.92,29.27,6.18,30.63,1023.94,2041.99,1915.04,2098.48,2267.71,349.76,329.68,32.05,0000 0000 0000 0000 000000
2014-01-27 00:39:25,0.26,5.50,0.00,19.76,25.92,29.28,6.13,30.79,1023.94,2041.99,1914.77,2098.17,2267.30,349.96,329.69,32.05,0000 0000 0000 0000 000000
2014-01-27 00:40:25,0.32,5.50,0.00,19.77,25.92,29.27,6.17,30.54,1023.94,2041.99,1914.31,2098.06,2267.11,349.13,329.08,32.06,0000 0000 0000 0000 000000
2014-01-27 00:41:25,0.25,5.50,0.00,19.77,25.92,29.27,6.15,30.67,1023.94,2041.99,1914.11,2098.01,2267.04,349.69,329.89,32.06,0000 0000 0000 0000 000000
2014-01-27 00:42:26,0.12,5.50,0.00,19.77,25.92,29.26,6.31,30.75,1023.94,2041.99,1914.02,2097.79,2266.88,350.85,330.69,32.07,0000 0000 0000 0000 000000
2014-01-27 00:43:26,0.15,5.51,0.00,19.78,25.92,29.25,6.19,30.83,1023.94,2041.99,1913.79,2097.39,2266.48,350.02,329.91,32.07,0000 0000 0000 0000 000000
2014-01-27 00:44:26,0.34,5.51,0.00,19.77,25.92,29.25,6.18,30.83,1023.93,2041.99,1913.32,2097.15,2266.18,350.21,330.06,32.08,0000 0000 0000 0000 000000
2014-01-27 00:45:27,0.34,5.51,0.00,19.77,25.92,29.25,6.27,30.88,1023.94,2041.99,1913.11,2097.05,2266.06,350.95,330.80,32.09,0000 0000 0000 0000 000000
2014-01-27 00:46:27,0.15,5.51,0.00,19.76,25.92,29.26,6.18,30.96,1023.93,2041.99,1913.02,2097.01,2266.00,350.86,330.71,32.09,0000 0000 0000 0000 000000
2014-01-27 00:47:27,0.10,5.51,0.00,19.75,25.92,29.27,6.22,30.92,1023.94,2041.99,1912.71,2096.63,2265.66,351.04,330.82,32.10,0000 0000 0000 0000 000000
2014-01-27 00:48:28,0.28,5.52,0.00,19.74,25.92,29.26,6.19,31.04,1023.94,2041.99,1912.30,2096.24,2265.26,350.64,330.53,32.10,0000 0000 0000 0000 000000
2014-01-27 00:49:28,0.43,5.52,0.00,19.74,25.92,29.24,6.17,31.17,1023.94,2041.99,1912.11,2096.08,2265.10,349.38,329.34,32.11,0000 0000 0000 0000 000000
2014-01-27 00:50:28,0.16,5.52,0.00,19.74,25.92,29.24,6.06,30.71,1023.93,2041.99,1912.02,2096.03,2265.02,350.59,330.05,32.12,0000 0000 0000 0000 000000
2014-01-27 00:51:28,0.06,5.52,0.00,19.73,25.91,29.25,6.30,30.96,1023.93,2041.99,1911.82,2095.99,2264.94,350.60,330.50,32.12,0000 0000 0000 0000 000000
2014-01-27 00:52:29,0.17,5.52,0.00,19.72,25.91,29.24,6.27,30.79,1023.92,2041.99,1911.37,2095.75,2264.56,350.40,330.13,32.13,0000 0000 0000 0000 000000
2014-01-27 00:53:29,0.34,5.52,0.00,19.72,25.90,29.23,6.18,30.75,1023.94,2041.99,1911.14,2095.36,2264.23,350.18,329.72,32.13,0000 0000 0000 0000 000000
2014-01-27 00:54:29,0.30,5.52,0.00,19.73,25.90,29.22,6.02,30.58,1023.94,2041.99,1911.03,2095.13,2264.08,349.71,330.00,32.14,0000 0000 0000 0000 000000
2014-01-27 00:55:29,0.18,5.52,0.00,19.73,25.90,29.22,6.13,30.71,1023.94,2041.99,1910.62,2095.04,2264.02,349.91,330.04,32.15,0000 0000 0000 0000 000000
2014-01-27 00:56:30,0.18,5.52,0.00,19.74,25.90,29.22,6.19,30.79,1023.94,2041.99,1910.24,2094.99,2263.91,350.22,330.27,32.15,0000 0000 0000 0000 000000
2014-01-27 00:57:30,0.21,5.52,0.00,19.73,25.90,29.24,6.27,30.96,1023.94,2041.99,1910.08,2094.76,2263.49,349.59,329.62,32.16,0000 0000 0000 0000 000000
2014-01-27 00:58:30,0.24,5.53,0.00,19.74,25.90,29.24,6.24,30.75,1023.94,2041.99,1909.96,2094.37,2263.22,350.66,330.75,32.16,0000 0000 0000 0000 000000
2014-01-27 00:59:30,0.28,5.53,0.00,19.73,25.90,29.23,6.19,30.71,1023.94,2041.99,1909.58,2094.13,2263.08,349.95,329.77,32.17,0000 0000 0000 0000 000000
2014-01-27 01:00:31,0.25,5.53,0.00,19.73,25.90,29.21,6.14,30.96,1023.94,2041.99,1909.24,2094.04,2263.02,349.12,329.11,32.17,0000 0000 0000 0000 000000
2014-01-27 01:01:31,0.17,5.53,0.00,19.72,25.90,29.23,6.14,30.88,1023.94,2041.99,1909.08,2093.96,2262.78,349.89,329.85,32.18,0000 0000 0000 0000 000000
2014-01-27 01:02:31,0.15,5.53,0.00,19.72,25.90,29.25,6.16,30.88,1023.94,2041.99,1908.97,2093.80,2262.38,350.51,330.44,32.19,0000 0000 0000 0000 000000
2014-01-27 01:03:32,0.24,5.53,0.00,19.72,25.90,29.24,6.19,30.83,1023.94,2041.99,1908.57,2093.39,2262.14,350.30,330.24,32.19,0000 0000 0000 0000 000000
2014-01-27 01:04:32,0.33,5.54,0.00,19.72,25.90,29.22,6.15,30.71,1023.94,2041.99,1908.21,2093.15,2262.05,350.07,330.02,32.20,0000 0000 0000 0000 000000
2014-01-27 01:05:32,0.25,5.54,0.00,19.72,25.90,29.22,6.14,31.00,1023.94,2041.99,1908.07,2093.05,2262.00,348.69,328.91,32.20,0000 0000 0000 0000 000000
2014-01-27 01:06:32,0.10,5.54,0.00,19.72,25.89,29.21,6.20,30.79,1023.94,2041.99,1908.02,2093.01,2261.70,349.82,329.49,32.21,0000 0000 0000 0000 000000
2014-01-27 01:07:33,0.10,5.54,0.00,19.74,25.89,29.22,6.16,30.58,1023.94,2041.99,1907.99,2092.84,2261.29,350.90,330.79,32.22,0000 0000 0000 0000 000000
2014-01-27 01:08:33,0.20,5.54,0.00,19.73,25.89,29.23,6.15,30.63,1023.94,2041.99,1907.76,2092.38,2261.10,350.10,330.04,32.22,0000 0000 0000 0000 000000
2014-01-27 01:09:33,0.31,5.54,0.00,19.73,25.89,29.22,6.13,30.75,1023.94,2041.99,1907.30,2092.15,2260.97,350.08,330.77,32.23,0000 0000 0000 0000 000000
2014-01-27 01:10:33,0.29,5.54,0.00,19.74,25.88,29.24,6.17,30.67,1023.94,2041.99,1907.11,2092.05,2260.57,350.00,329.65,32.23,0000 0000 0000 0000 000000
2014-01-27 01:11:34,0.19,5.54,0.00,19.73,25.88,29.22,6.25,30.46,1023.94,2041.99,1907.03,2092.01,2260.26,350.41,330.33,32.24,0000 0000 0000 0000 000000
2014-01-27 01:12:34,0.11,5.54,0.00,19.71,25.87,29.21,6.15,30.75,1023.94,2042.00,1906.85,2091.95,2260.09,349.90,329.76,32.24,0000 0000 0000 0000 000000
2014-01-27 01:13:34,0.16,5.55,0.00,19.70,25.87,29.22,6.20,30.75,1023.94,2042.01,1906.41,2091.63,2260.02,349.04,328.78,32.25,0000 0000 0000 0000 000000
2014-01-27 01:14:35,0.29,5.55,0.00,19.69,25.87,29.22,6.25,30.58,1023.94,2042.00,1906.15,2091.25,2259.83,350.75,330.98,32.26,0000 0000 0000 0000 000000
2014-01-27 01:15:35,0.30,5.55,0.00,19.70,25.87,29.21,6.17,30.67,1023.94,2042.02,1906.04,2091.09,2259.36,350.23,330.09,32.26,0000 0000 0000 0000 000000
2014-01-27 01:16:35,0.21,5.55,0.00,19.69,25.87,29.19,6.09,30.96,1023.94,2042.00,1905.94,2091.03,2259.13,349.85,329.63,32.27,0000 0000 0000 0000 000000
2014-01-27 01:17:36,0.14,5.55,0.00,19.68,25.87,29.15,6.17,30.79,1023.94,2042.00,1905.52,2090.96,2259.04,350.63,330.63,32.27,0000 0000 0000 0000 000000
2014-01-27 01:18:36,0.17,5.55,0.00,19.67,25.87,29.18,6.38,30.67,1023.94,2042.00,1905.20,2090.63,2258.99,351.84,331.74,32.28,0000 0000 0000 0000 000000
2014-01-27 01:19:36,0.26,5.55,0.00,19.66,25.87,29.16,6.14,30.75,1023.92,2042.00,1905.07,2090.24,2258.65,350.11,329.76,32.29,0000 0000 0000 0000 000000
2014-01-27 01:20:37,0.28,5.55,0.00,19.67,25.87,29.17,6.12,30.71,1023.94,2042.00,1904.99,2090.08,2258.25,351.13,331.08,32.29,0000 0000 0000 0000 000000
2014-01-27 01:21:37,0.20,5.56,0.00,19.67,25.87,29.20,6.26,30.71,1023.92,2042.00,1904.63,2090.01,2258.09,351.10,331.05,32.30,0000 0000 0000 0000 000000
2014-01-27 01:22:37,0.18,5.56,0.00,19.67,25.87,29.19,6.24,30.67,1023.92,2042.00,1904.25,2089.99,2258.03,351.43,331.36,32.30,0000 0000 0000 0000 000000
2014-01-27 01:23:37,0.18,5.56,0.00,19.67,25.87,29.18,6.23,30.71,1023.93,2042.00,1904.09,2089.75,2257.99,350.54,330.52,32.31,0000 0000 0000 0000 000000
2014-01-27 01:24:38,0.17,5.56,0.00,19.67,25.87,29.20,6.07,30.88,1023.93,2042.00,1904.01,2089.37,2257.81,349.32,329.37,32.32,0000 0000 0000 0000 000000
2014-01-27 01:25:38,0.23,5.56,0.00,19.67,25.87,29.22,6.08,30.63,1023.90,2042.01,1903.77,2089.14,2257.37,349.72,329.73,32.32,0000 0000 0000 0000 000000
2014-01-27 01:26:38,0.30,5.56,0.00,19.68,25.86,29.21,6.11,30.67,1023.90,2042.00,1903.33,2089.05,2257.14,349.45,329.56,32.33,0000 0000 0000 0000 000000
2014-01-27 01:27:38,0.21,5.56,0.00,19.69,25.86,29.20,6.16,30.75,1023.91,2042.01,1903.12,2089.01,2257.05,349.95,329.90,32.33,0000 0000 0000 0000 000000
2014-01-27 01:28:39,0.11,5.57,0.00,19.69,25.85,29.15,6.15,30.58,1023.90,2042.03,1903.03,2088.90,2257.00,351.10,330.85,32.34,0000 0000 0000 0000 000000
2014-01-27 01:29:39,0.17,5.57,0.00,19.68,25.85,29.17,5.94,30.71,1023.91,2042.04,1902.76,2088.49,2256.86,349.09,328.81,32.34,0000 0000 0000 0000 000000
2014-01-27 01:30:39,0.34,5.57,0.00,19.68,25.85,29.17,6.15,30.67,1023.92,2042.02,1902.31,2088.19,2256.40,349.96,329.75,32.35,0000 0000 0000 0000 000000
2014-01-27 01:31:40,0.31,5.57,0.00,19.67,25.85,29.18,6.21,30.63,1023.93,2042.00,1902.11,2088.07,2256.14,349.79,329.92,32.36,0000 0000 0000 0000 000000
2014-01-27 01:32:40,0.16,5.57,0.00,19.67,25.85,29.17,6.30,30.46,1023.94,2042.02,1902.03,2088.01,2256.05,351.75,331.64,32.36,0000 0000 0000 0000 000000
2014-01-27 01:33:40,0.07,5.57,0.00,19.67,25.85,29.18,5.99,30.92,1023.93,2042.01,1901.80,2087.95,2255.97,348.94,329.03,32.37,0000 0000 0000 0000 000000
2014-01-27 01:34:41,0.15,5.57,0.00,19.67,25.85,29.18,6.18,30.79,1023.93,2042.02,1901.39,2087.62,2255.79,350.52,330.50,32.37,0000 0000 0000 0000 000000
2014-01-27 01:35:41,0.34,5.57,0.00,19.66,25.85,29.17,6.09,30.79,1023.93,2042.02,1901.15,2087.28,2255.38,348.71,328.56,32.38,0000 0000 0000 0000 000000
2014-01-27 01:36:41,0.30,5.58,0.00,19.66,25.85,29.15,6.19,30.75,1023.93,2042.02,1901.04,2087.10,2255.16,349.92,330.13,32.39,0000 0000 0000 0000 000000
2014-01-27 01:37:41,0.17,5.58,0.00,19.65,25.85,29.16,6.21,30.79,1023.92,2042.04,1900.78,2087.03,2255.05,349.51,329.61,32.39,0000 0000 0000 0000 000000
2014-01-27 01:38:42,0.19,5.58,0.00,19.64,25.85,29.15,6.12,30.71,1023.93,2042.06,1900.32,2086.98,2254.99,349.51,329.58,32.40,0000 0000 0000 0000 000000
2014-01-27 01:39:42,0.19,5.58,0.00,19.64,25.85,29.14,6.16,30.67,1023.93,2042.05,1900.11,2086.65,2254.79,350.05,330.08,32.40,0000 0000 0000 0000 000000
2014-01-27 01:40:42,0.28,5.58,0.00,19.64,25.84,29.16,5.91,30.75,1023.92,2042.04,1900.03,2086.28,2254.37,349.16,329.25,32.41,0000 0000 0000 0000 000000
2014-01-27 01:41:42,0.25,5.58,0.00,19.65,25.84,29.16,6.18,30.75,1023.91,2042.06,1899.85,2086.10,2254.14,349.47,329.53,32.41,0000 0000 0000 0000 000000
2014-01-27 01:42:43,0.22,5.58,0.00,19.65,25.83,29.19,6.21,30.79,1023.91,2042.06,1899.39,2086.04,2254.04,350.49,330.48,32.42,0000 0000 0000 0000 000000
2014-01-27 01:43:43,0.20,5.59,0.00,19.65,25.83,29.17,6.20,30.79,1023.89,2042.06,1899.14,2085.99,2253.96,350.42,330.41,32.43,0000 0000 0000 0000 000000
2014-01-27 01:44:43,0.15,5.59,0.00,19.65,25.82,29.15,6.22,30.67,1023.88,2042.06,1899.05,2085.70,2253.62,350.27,330.29,32.43,0000 0000 0000 0000 000000
2014-01-27 01:45:44,0.24,5.59,0.00,19.64,25.82,29.17,6.31,31.13,1023.88,2042.06,1898.85,2085.30,2253.25,350.05,330.07,32.44,0000 0000 0000 0000 000000
2014-01-27 01:46:44,0.33,5.59,0.00,19.64,25.82,29.16,6.18,31.08,1023.92,2042.05,1898.37,2085.11,2253.09,351.69,331.21,32.44,0000 0000 0000 0000 000000
2014-01-27 01:47:44,0.24,5.59,0.00,19.64,25.82,29.15,6.03,31.00,1023.94,2042.04,1898.13,2085.03,2253.02,349.31,329.78,32.45,0000 0000 0000 0000 000000
2014-01-27 01:48:44,0.13,5.59,0.00,19.64,25.82,29.15,6.12,30.96,1023.94,2042.03,1898.00,2084.92,2252.82,348.97,329.07,32.46,0000 0000 0000 0000 000000
2014-01-27 01:49:44,0.17,5.59,0.00,19.64,25.82,29.17,6.13,30.88,1023.94,2042.08,1897.66,2084.64,2252.41,349.79,329.76,32.46,0000 0000 0000 0000 000000
2014-01-27 01:50:45,0.39,5.60,0.00,19.64,25.82,29.15,6.13,30.63,1023.94,2042.06,1897.26,2084.26,2252.15,349.33,329.41,32.47,0000 0000 0000 0000 000000
2014-01-27 01:51:45,0.30,5.60,0.00,19.62,25.82,29.15,6.27,30.83,1023.94,2042.08,1897.09,2084.09,2252.05,350.88,330.89,32.47,0000 0000 0000 0000 000000
2014-01-27 01:52:45,0.22,5.60,0.00,19.62,25.82,29.15,6.12,30.96,1023.93,2042.18,1897.01,2084.03,2252.01,349.10,329.22,32.48,0000 0000 0000 0000 000000
2014-01-27 01:53:46,0.14,5.60,0.00,19.62,25.82,29.13,6.17,30.88,1023.93,2042.13,1896.61,2083.97,2251.88,350.68,330.71,32.49,0000 0000 0000 0000 000000
2014-01-27 01:54:46,0.15,5.60,0.00,19.62,25.82,29.13,6.26,31.04,1023.94,2042.09,1896.24,2083.71,2251.49,350.06,330.13,32.49,0000 0000 0000 0000 000000
2014-01-27 01:55:46,0.28,5.60,0.00,19.62,25.82,29.14,6.24,30.88,1023.94,2042.06,1896.08,2083.30,2251.20,349.51,329.96,32.50,0000 0000 0000 0000 000000
2014-01-27 01:56:47,0.26,5.60,0.00,19.61,25.81,29.14,6.28,31.00,1023.94,2042.14,1896.01,2083.10,2251.07,349.79,329.87,32.50,0000 0000 0000 0000 000000
2014-01-27 01:57:47,0.22,5.60,0.00,19.60,25.81,29.16,6.23,30.92,1023.94,2042.13,1895.88,2083.04,2250.98,350.14,330.22,32.51,0000 0000 0000 0000 000000
2014-01-27 01:58:47,0.10,5.60,0.00,19.61,25.80,29.13,6.30,30.88,1023.93,2042.11,1895.42,2083.01,2250.73,350.83,330.86,32.51,0000 0000 0000 0000 000000
2014-01-27 01:59:47,0.21,5.61,0.00,19.61,25.80,29.15,6.26,31.08,1023.93,2042.19,1895.15,2082.86,2250.32,350.06,330.37,32.52,0000 0000 0000 0000 000000
2014-01-27 02:00:47,0.32,5.61,0.00,19.62,25.80,29.13,6.17,30.88,1023.94,2042.24,1895.02,2082.41,2250.11,350.36,330.41,32.53,0000 0000 0000 0000 000000
2014-01-27 02:01:48,0.31,5.61,0.00,19.61,25.80,29.11,6.27,30.92,1023.94,2042.24,1894.63,2082.15,2250.03,350.54,330.59,32.53,0000 0000 0000 0000 000000
2014-01-27 02:02:48,0.27,5.61,0.00,19.60,25.80,29.11,6.17,30.96,1023.94,2042.31,1894.25,2082.05,2249.99,350.15,330.23,32.54,0000 0000 0000 0000 000000
2014-01-27 02:03:49,0.25,5.61,0.00,19.60,25.80,29.13,6.26,31.04,1023.94,2042.40,1894.09,2081.98,2249.69,350.71,330.79,32.54,0000 0000 0000 0000 000000
2014-01-27 02:04:49,0.24,5.61,0.00,19.60,25.80,29.12,6.01,30.88,1023.93,2042.35,1894.01,2081.86,2249.28,349.22,329.66,32.55,0000 0000 0000 0000 000000
2014-01-27 02:05:49,0.22,5.62,0.00,19.62,25.80,29.11,6.06,30.75,1023.93,2042.45,1893.68,2081.45,2249.10,349.52,329.62,32.56,0000 0000 0000 0000 000000
2014-01-27 02:06:49,0.40,5.62,0.00,19.62,25.80,29.09,6.17,30.83,1023.93,2042.43,1893.26,2081.17,2249.03,350.32,330.02,32.56,0000 0000 0000 0000 000000
2014-01-27 02:07:49,0.24,5.62,0.00,19.61,25.80,29.10,6.09,30.92,1023.93,2042.36,1893.10,2081.06,2248.93,350.06,330.22,32.57,0000 0000 0000 0000 000000
2014-01-27 02:08:50,0.07,5.62,0.00,19.60,25.80,29.09,6.17,30.88,1023.93,2042.28,1892.96,2081.00,2248.53,349.59,330.01,32.57,0000 0000 0000 0000 000000
2014-01-27 02:09:50,0.07,5.62,0.00,19.61,25.79,29.09,6.14,30.75,1023.93,2042.17,1892.49,2080.81,2248.19,350.40,330.51,32.58,0000 0000 0000 0000 000000
2014-01-27 02:10:50,0.24,5.62,0.00,19.61,25.79,29.10,6.30,30.83,1023.93,2042.18,1892.18,2080.36,2248.07,349.55,329.65,32.58,0000 0000 0000 0000 000000
2014-01-27 02:11:51,0.30,5.62,0.00,19.62,25.79,29.09,6.27,30.83,1023.91,2042.19,1892.06,2080.13,2248.02,350.28,330.29,32.59,0000 0000 0000 0000 000000
2014-01-27 02:12:51,0.12,5.62,0.00,19.62,25.78,29.09,6.13,30.75,1023.92,2042.25,1891.98,2080.05,2247.90,350.49,330.41,32.60,0000 0000 0000 0000 000000
2014-01-27 02:13:51,0.19,5.63,0.00,19.61,25.77,29.10,6.33,30.96,1023.92,2042.25,1891.73,2080.00,2247.52,350.16,330.22,32.60,0000 0000 0000 0000 000000
2014-01-27 02:14:51,0.27,5.63,0.00,19.60,25.77,29.12,6.12,30.83,1023.93,2042.36,1891.34,2079.80,2247.22,349.67,329.77,32.61,0000 0000 0000 0000 000000
2014-01-27 02:15:51,0.36,5.63,0.00,19.60,25.77,29.13,6.42,31.08,1023.92,2042.53,1891.12,2079.39,2247.07,351.58,331.26,32.61,0000 0000 0000 0000 000000
2014-01-27 02:16:52,0.47,5.63,0.00,19.60,25.77,29.13,6.23,30.92,1023.94,2042.59,1891.04,2079.14,2246.99,349.71,329.82,32.62,0000 0000 0000 0000 000000
2014-01-27 02:17:52,0.18,5.63,0.00,19.62,25.77,29.12,6.19,30.79,1023.94,2042.53,1890.82,2079.04,2246.65,350.47,330.51,32.63,0000 0000 0000 0000 000000
2014-01-27 02:18:52,0.19,5.63,0.00,19.60,25.77,29.09,6.19,31.00,1023.91,2042.52,1890.33,2079.00,2246.26,349.37,329.48,32.63,0000 0000 0000 0000 000000
2014-01-27 02:19:52,0.23,5.64,0.00,19.60,25.77,29.09,6.26,31.33,1023.91,2042.49,1890.12,2078.80,2246.09,350.43,330.58,32.64,0000 0000 0000 0000 000000
2014-01-27 02:20:53,0.24,5.64,0.00,19.59,25.77,29.09,6.26,30.83,1023.92,2042.50,1890.04,2078.42,2246.02,350.71,330.77,32.64,0000 0000 0000 0000 000000
2014-01-27 02:21:53,0.14,5.64,0.00,19.59,25.77,29.09,6.19,30.88,1023.90,2042.37,1889.97,2078.15,2245.80,350.88,330.67,32.65,0000 0000 0000 0000 000000
2014-01-27 02:22:53,0.08,5.64,0.00,19.60,25.77,29.09,6.28,31.08,1023.92,2042.51,1889.63,2078.05,2245.37,350.66,330.73,32.66,0000 0000 0000 0000 000000
2014-01-27 02:23:53,0.45,5.64,0.00,19.60,25.76,29.08,6.26,30.92,1023.89,2042.53,1889.26,2077.99,2245.14,349.98,330.05,32.66,0000 0000 0000 0000 000000
2014-01-27 02:24:54,0.20,5.64,0.00,19.61,25.76,29.08,6.23,30.88,1023.90,2042.63,1889.09,2077.85,2245.05,350.20,330.25,32.67,0000 0000 0000 0000 000000
2014-01-27 02:25:54,0.26,5.64,0.00,19.59,25.75,29.09,5.98,30.79,1023.88,2042.78,1889.03,2077.47,2244.99,349.13,328.80,32.67,0000 0000 0000 0000 000000
2014-01-27 02:26:54,0.32,5.65,0.00,19.57,25.75,29.07,6.13,30.96,1023.82,2042.83,1888.87,2077.19,2244.76,350.20,329.99,32.68,0000 0000 0000 0000 000000
2014-01-27 02:27:55,0.27,5.65,0.00,19.57,25.75,29.05,6.19,30.79,1023.83,2042.85,1888.47,2077.07,2244.34,350.40,330.46,32.68,0000 0000 0000 0000 000000
2014-01-27 02:28:55,0.31,5.65,0.00,19.57,25.75,29.07,6.15,30.75,1023.88,2042.76,1888.17,2077.03,2244.12,349.94,330.05,32.69,0000 0000 0000 0000 000000
2014-01-27 02:29:55,0.12,5.65,0.00,19.57,25.75,29.08,6.23,30.71,1023.88,2042.75,1888.06,2076.97,2244.03,350.72,331.05,32.70,0000 0000 0000 0000 000000
2014-01-27 02:30:55,0.08,5.65,0.00,19.56,25.75,29.09,6.29,30.71,1023.86,2042.80,1887.99,2076.61,2243.92,350.38,330.46,32.70,0000 0000 0000 0000 000000
2014-01-27 02:31:56,0.20,5.65,0.00,19.55,25.75,29.07,6.28,30.88,1023.88,2042.77,1887.67,2076.26,2243.49,350.41,330.51,32.71,0000 0000 0000 0000 000000
2014-01-27 02:32:56,0.37,5.65,0.00,19.56,25.75,29.07,6.14,30.79,1023.85,2042.80,1887.26,2076.10,2243.18,349.78,329.90,32.71,0000 0000 0000 0000 000000
2014-01-27 02:33:56,0.31,5.66,0.00,19.55,25.75,29.08,6.26,30.88,1023.78,2042.88,1887.09,2076.03,2243.07,349.94,329.86,32.72,0000 0000 0000 0000 000000
2014-01-27 02:34:57,0.18,5.66,0.00,19.55,25.75,29.09,6.24,30.92,1023.75,2042.90,1886.90,2075.98,2243.02,350.88,330.92,32.73,0000 0000 0000 0000 000000
2014-01-27 02:35:57,0.13,5.66,0.00,19.56,25.75,29.08,6.17,30.71,1023.77,2042.92,1886.44,2075.71,2242.93,349.72,329.83,32.73,0000 0000 0000 0000 000000